User: anonymous   Login
Location: Columbia
(38.9520°N, 92.3340°W)
Time: 03:15:19
(UTC-05:00)
Language:

CZ-2C R/B - Orbit

View from above orbital plane
View from above orbital plane
View from above satellite
View from above satellite

Ground track
Ground track

The orbit data is extracted from the following two-line orbital elements,

1 28480U 04046B   16273.15409498  .00000042  00000-0  31976-4 0  9991
2 28480  98.1909  20.2381 0140842 274.9409 146.0611 14.25608381617045
Epoch (UTC): 29 September 2016 03:41:53
Eccentricity: 0.0140842
inclination: 98.1909°
perigee height: 705 km
apogee height: 907 km
right ascension of ascending node: 20.2381°
argument of perigee: 274.9409°
revolutions per day: 14.25608381
mean anomaly at epoch: 146.0611°
orbit number at epoch: 61704

The dashed part of the orbit path shows where the satellite is in the earth's shadow,  

DLR